Time,TemperatureF,DewpointF,PressureIn,WindDirection,WindDirectionDegrees,WindSpeedMPH,WindSpeedGustMPH,Humidity,HourlyPrecipIn,Conditions,Clouds,dailyrainin,SoftwareType,DateUTC
2013-08-17 00:00:00,77.0,54.0,-100.00,SE,129,2.0,-999.0,43,0.00,,,-99.99,,2013-08-17 07:00:00,
2013-08-17 00:42:00,77.0,54.0,-100.00,SE,129,2.0,-999.0,43,0.00,,,-99.99,,2013-08-17 07:42:00,
2013-08-17 00:52:00,77.0,54.0,-100.00,SE,129,2.0,-999.0,43,0.00,,,-99.99,,2013-08-17 07:52:00,
2013-08-17 01:00:00,74.0,53.0,-100.00,South,184,2.0,-999.0,46,0.00,,,-99.99,,2013-08-17 08:00:00,
2013-08-17 01:42:00,74.0,53.0,-100.00,South,184,2.0,-999.0,46,0.00,,,-99.99,,2013-08-17 08:42:00,
2013-08-17 01:52:00,74.0,53.0,-100.00,South,184,2.0,-999.0,46,0.00,,,-99.99,,2013-08-17 08:52:00,
2013-08-17 02:00:00,73.0,52.0,-100.00,SSW,199,4.0,-999.0,47,0.00,,,-99.99,,2013-08-17 09:00:00,
2013-08-17 02:43:00,73.0,52.0,-100.00,SSW,199,4.0,-999.0,47,0.00,,,-99.99,,2013-08-17 09:43:00,
2013-08-17 02:53:00,73.0,52.0,-100.00,SSW,199,4.0,-999.0,47,0.00,,,-99.99,,2013-08-17 09:53:00,
2013-08-17 03:00:00,71.0,56.0,-100.00,SSW,208,4.0,-999.0,59,0.00,,,-99.99,,2013-08-17 10:00:00,
2013-08-17 03:42:00,71.0,56.0,-100.00,SSW,208,4.0,-999.0,59,0.00,,,-99.99,,2013-08-17 10:42:00,
2013-08-17 03:52:00,71.0,56.0,-100.00,SSW,208,4.0,-999.0,59,0.00,,,-99.99,,2013-08-17 10:52:00,
2013-08-17 04:00:00,69.0,56.0,-100.00,South,178,3.0,-999.0,60,0.00,,,-99.99,,2013-08-17 11:00:00,
2013-08-17 04:42:00,69.0,56.0,-100.00,South,178,3.0,-999.0,60,0.00,,,-99.99,,2013-08-17 11:42:00,
2013-08-17 04:52:00,69.0,56.0,-100.00,South,178,3.0,-999.0,60,0.00,,,-99.99,,2013-08-17 11:52:00,
2013-08-17 05:00:00,67.0,54.0,-100.00,SSE,149,3.0,-999.0,63,0.00,,,-99.99,,2013-08-17 12:00:00,
2013-08-17 05:42:00,67.0,54.0,-100.00,SSE,149,3.0,-999.0,63,0.00,,,-99.99,,2013-08-17 12:42:00,
2013-08-17 05:52:00,67.0,54.0,-100.00,SSE,149,3.0,-999.0,63,0.00,,,-99.99,,2013-08-17 12:52:00,
2013-08-17 06:00:00,66.0,54.0,-100.00,SE,132,4.0,-999.0,65,0.00,,,-99.99,,2013-08-17 13:00:00,
2013-08-17 06:42:00,66.0,54.0,-100.00,SE,132,4.0,-999.0,65,0.00,,,-99.99,,2013-08-17 13:42:00,
2013-08-17 06:52:00,66.0,54.0,-100.00,SE,132,4.0,-999.0,65,0.00,,,-99.99,,2013-08-17 13:52:00,
2013-08-17 07:00:00,66.0,54.0,-100.00,ESE,114,2.0,-999.0,64,0.00,,,-99.99,,2013-08-17 14:00:00,
2013-08-17 07:42:00,66.0,54.0,-100.00,ESE,114,2.0,-999.0,64,0.00,,,-99.99,,2013-08-17 14:42:00,
2013-08-17 07:52:00,66.0,54.0,-100.00,ESE,114,2.0,-999.0,64,0.00,,,-99.99,,2013-08-17 14:52:00,
2013-08-17 08:00:00,72.0,55.0,-100.00,South,170,5.0,-999.0,56,0.00,,,-99.99,,2013-08-17 15:00:00,
2013-08-17 08:44:00,72.0,55.0,-100.00,South,170,5.0,-999.0,56,0.00,,,-99.99,,2013-08-17 15:44:00,
2013-08-17 08:53:00,72.0,55.0,-100.00,South,170,5.0,-999.0,56,0.00,,,-99.99,,2013-08-17 15:53:00,
2013-08-17 09:00:00,77.0,56.0,-100.00,SW,218,7.0,-999.0,48,0.00,,,-99.99,,2013-08-17 16:00:00,
2013-08-17 09:42:00,77.0,56.0,-100.00,SW,218,7.0,-999.0,48,0.00,,,-99.99,,2013-08-17 16:42:00,
2013-08-17 09:53:00,77.0,56.0,-100.00,SW,218,7.0,-999.0,48,0.00,,,-99.99,,2013-08-17 16:53:00,
2013-08-17 10:00:00,81.0,57.0,-100.00,South,175,4.0,-999.0,43,0.00,,,-99.99,,2013-08-17 17:00:00,
2013-08-17 10:42:00,81.0,57.0,-100.00,South,175,4.0,-999.0,43,0.00,,,-99.99,,2013-08-17 17:42:00,
2013-08-17 10:52:00,81.0,57.0,-100.00,South,175,4.0,-999.0,43,0.00,,,-99.99,,2013-08-17 17:52:00,
2013-08-17 11:00:00,83.0,54.0,-100.00,SW,217,7.0,-999.0,36,0.00,,,-99.99,,2013-08-17 18:00:00,
2013-08-17 11:42:00,83.0,54.0,-100.00,SW,217,7.0,-999.0,36,0.00,,,-99.99,,2013-08-17 18:42:00,
2013-08-17 11:52:00,83.0,54.0,-100.00,SW,217,7.0,-999.0,36,0.00,,,-99.99,,2013-08-17 18:52:00,
2013-08-17 12:00:00,86.0,50.0,-100.00,SSW,212,3.0,-999.0,29,0.00,,,-99.99,,2013-08-17 19:00:00,
2013-08-17 12:42:00,86.0,50.0,-100.00,SSW,212,3.0,-999.0,29,0.00,,,-99.99,,2013-08-17 19:42:00,
2013-08-17 12:52:00,86.0,50.0,-100.00,SSW,212,3.0,-999.0,29,0.00,,,-99.99,,2013-08-17 19:52:00,
2013-08-17 13:00:00,88.0,50.0,-100.00,NW,307,7.0,-999.0,26,0.00,,,-99.99,,2013-08-17 20:00:00,
2013-08-17 13:42:00,88.0,50.0,-100.00,NW,307,7.0,-999.0,26,0.00,,,-99.99,,2013-08-17 20:42:00,
2013-08-17 13:52:00,88.0,50.0,-100.00,NW,307,7.0,-999.0,26,0.00,,,-99.99,,2013-08-17 20:52:00,
2013-08-17 14:00:00,91.0,49.0,-100.00,NNW,339,4.0,-999.0,23,0.00,,,-99.99,,2013-08-17 21:00:00,
2013-08-17 14:42:00,91.0,49.0,-100.00,NNW,339,4.0,-999.0,23,0.00,,,-99.99,,2013-08-17 21:42:00,
2013-08-17 14:53:00,91.0,49.0,-100.00,NNW,339,4.0,-999.0,23,0.00,,,-99.99,,2013-08-17 21:53:00,
2013-08-17 15:00:00,94.0,49.0,-100.00,ESE,119,1.0,-999.0,21,0.00,,,-99.99,,2013-08-17 22:00:00,
2013-08-17 15:42:00,94.0,49.0,-100.00,ESE,119,1.0,-999.0,21,0.00,,,-99.99,,2013-08-17 22:42:00,
2013-08-17 15:52:00,94.0,49.0,-100.00,ESE,119,1.0,-999.0,21,0.00,,,-99.99,,2013-08-17 22:52:00,
2013-08-17 16:00:00,95.0,50.0,-100.00,NNW,339,3.0,-999.0,22,0.00,,,-99.99,,2013-08-17 23:00:00,
2013-08-17 16:42:00,95.0,50.0,-100.00,NNW,339,3.0,-999.0,22,0.00,,,-99.99,,2013-08-17 23:42:00,
2013-08-17 16:52:00,95.0,50.0,-100.00,NNW,339,3.0,-999.0,22,0.00,,,-99.99,,2013-08-17 23:52:00,
2013-08-17 17:00:00,97.0,51.0,-100.00,NW,316,9.0,-999.0,21,0.00,,,-99.99,,2013-08-18 00:00:00,
2013-08-17 17:42:00,97.0,51.0,-100.00,NW,316,9.0,-999.0,21,0.00,,,-99.99,,2013-08-18 00:42:00,
2013-08-17 17:52:00,97.0,51.0,-100.00,NW,316,9.0,-999.0,21,0.00,,,-99.99,,2013-08-18 00:52:00,
2013-08-17 18:00:00,97.0,50.0,-100.00,NNW,334,7.0,-999.0,20,0.00,,,-99.99,,2013-08-18 01:00:00,
2013-08-17 18:42:00,97.0,50.0,-100.00,NNW,334,7.0,-999.0,20,0.00,,,-99.99,,2013-08-18 01:42:00,
2013-08-17 18:52:00,97.0,50.0,-100.00,NNW,334,7.0,-999.0,20,0.00,,,-99.99,,2013-08-18 01:52:00,
2013-08-17 19:00:00,97.0,52.0,-100.00,NW,325,8.0,-999.0,22,0.00,,,-99.99,,2013-08-18 02:00:00,
2013-08-17 19:42:00,97.0,52.0,-100.00,NW,325,8.0,-999.0,22,0.00,,,-99.99,,2013-08-18 02:42:00,
2013-08-17 19:52:00,97.0,52.0,-100.00,NW,325,8.0,-999.0,22,0.00,,,-99.99,,2013-08-18 02:52:00,
2013-08-17 20:00:00,-999.0,-99.9,-100.00,West,278,4.0,-999.0,-999,0.00,,,-99.99,,2013-08-18 03:00:00,
2013-08-17 20:43:00,93.0,55.0,-100.00,West,278,4.0,-999.0,28,0.00,,,-99.99,,2013-08-18 03:43:00,
2013-08-17 20:53:00,93.0,55.0,-100.00,West,278,4.0,-999.0,28,0.00,,,-99.99,,2013-08-18 03:53:00,
2013-08-17 21:00:00,87.0,56.0,-100.00,West,275,5.0,-999.0,34,0.00,,,-99.99,,2013-08-18 04:00:00,
2013-08-17 21:42:00,87.0,56.0,-100.00,West,275,5.0,-999.0,34,0.00,,,-99.99,,2013-08-18 04:42:00,
2013-08-17 21:53:00,87.0,56.0,-100.00,West,275,5.0,-999.0,34,0.00,,,-99.99,,2013-08-18 04:53:00,
2013-08-17 22:00:00,81.0,56.0,-100.00,NW,319,4.0,-999.0,41,0.00,,,-99.99,,2013-08-18 05:00:00,
2013-08-17 22:42:00,81.0,56.0,-100.00,NW,319,4.0,-999.0,41,0.00,,,-99.99,,2013-08-18 05:42:00,
2013-08-17 22:52:00,81.0,56.0,-100.00,NW,319,4.0,-999.0,41,0.00,,,-99.99,,2013-08-18 05:52:00,
2013-08-17 23:00:00,81.0,52.0,-100.00,NW,322,4.0,-999.0,36,0.00,,,-99.99,,2013-08-18 06:00:00,
2013-08-17 23:42:00,81.0,52.0,-100.00,NW,322,4.0,-999.0,36,0.00,,,-99.99,,2013-08-18 06:42:00,
2013-08-17 23:52:00,81.0,52.0,-100.00,NW,322,4.0,-999.0,36,0.00,,,-99.99,,2013-08-18 06:52:00,